This demonstration page uses our WeatherBlox Daily Observations layout. Learn more.

Left ArrowRight Arrow

53.62937, 11.41316

Hourly Observations for January 4, 2016

Temp ( °F °C ) Dew Point ( °F °C ) Humidity (%) Winds ( mph kmh ) Pressure ( in mb ) Visibility ( mi km ) Precip ( " mm )
5:20 am 05:20 Mostly Clear 12 -11 7 -14 79 79 E 15 24 29.56 1001 7 11 N/A
5:50 am 05:50 Mostly Clear 12 -11 7 -14 79 79 E 17 28 29.53 1000 7 11 N/A
6:20 am 06:20 Mostly Clear 12 -11 7 -14 79 79 E 16 26 29.53 1000 7 11 N/A
6:50 am 06:50 Mostly Clear 12 -11 7 -14 79 79 E 15 24 29.53 1000 7 11 N/A
7:20 am 07:20 Mostly Clear 12 -11 7 -14 79 79 E 18 30 29.50 999 6 9 N/A
7:50 am 07:50 Mostly Clear 12 -11 7 -14 79 79 E 17 28 29.50 999 6 9 N/A
8:20 am 08:20 Mostly Clear 12 -11 7 -14 79 79 E 15 24 29.50 999 6 9 N/A
8:50 am 08:50 Mostly Cloudy 12 -11 7 -14 79 79 E 16 26 29.50 999 6 9 N/A
9:50 am 09:50 Partly Cloudy 12 -11 7 -14 79 79 E 17 28 29.50 999 6 9 N/A
10:20 am 10:20 Mostly Sunny 12 -11 7 -14 79 79 E 16 26 29.47 998 5 8 N/A
10:50 am 10:50 Mostly Sunny 14 -10 7 -14 73 73 E 15 24 29.47 998 5 8 N/A
11:20 am 11:20 Mostly Sunny 14 -10 9 -13 79 79 E 15 24 29.47 998 5 8 N/A
11:50 am 11:50 Mostly Sunny 16 -9 9 -13 73 73 E 16 26 29.47 998 7 11 N/A
12:20 pm 12:20 Mostly Cloudy 16 -9 9 -13 73 73 E 16 26 29.44 997 30 48 N/A
12:50 pm 12:50 Mostly Sunny 18 -8 9 -13 68 68 E 15 24 29.44 997 30 48 N/A
1:20 pm 13:20 Mostly Sunny 18 -8 9 -13 68 68 E 16 26 29.44 997 7 11 N/A
1:50 pm 13:50 Partly Cloudy 18 -8 9 -13 68 68 E 16 26 29.44 997 30 48 N/A
2:20 pm 14:20 Mostly Cloudy 18 -8 10 -12 73 73 E 17 28 29.44 997 30 48 N/A
2:50 pm 14:50 Partly Cloudy 18 -8 10 -12 73 73 E 13 20 29.44 997 30 48 N/A
3:20 pm 15:20 Mostly Cloudy 18 -8 10 -12 73 73 E 13 20 29.44 997 30 48 N/A
3:50 pm 15:50 Partly Cloudy 18 -8 10 -12 73 73 E 10 17 29.44 997 30 48 N/A
4:20 pm 16:20 Partly Cloudy 18 -8 10 -12 73 73 E 13 20 29.44 997 30 48 N/A
4:50 pm 16:50 Partly Cloudy 18 -8 10 -12 73 73 E 14 22 29.44 997 30 48 N/A
5:20 pm 17:20 Mostly Cloudy 18 -8 10 -12 73 73 E 15 24 29.44 997 30 48 N/A
5:50 pm 17:50 Mostly Clear 18 -8 10 -12 73 73 E 16 26 29.44 997 7 11 N/A

Powered by AerisWeather